Lexington Weather

Lexington, Massachusetts, USA

45°F
10/26/2020 5:10am 
  • Lexington Conditions: Overcast
  • Temperature: 45.1°F / 7.3°C 
  • Dew Point: 39.7°FIncreased 0.3°Fsince last hour.
  • Relative Humidity: 81%Increased 1.0% since last hour.
  • Wind: Wind from N N 1 mph, 10-min avg: 1 mph, gust: 3 mph
  • Barometer: 30.28 in Steady
  • Visibility: 10 miles
  • Rain Today: 0.00 in
  •   

Regional Weather Roundup
for Boston / Norton, MA

        
000
ASUS41 KBOX 251404
RWRBOX

REGIONAL WEATHER ROUNDUP
NATIONAL WEATHER SERVICE BOSTON/NORTON MA
1000 AM EDT SUN OCT 25 2020

NOTE:  "FAIR" INDICATES FEW OR NO CLOUDS BELOW 12,000 FEET WITH NO 
SIGNIFICANT WEATHER AND/OR OBSTRUCTIONS TO VISIBILITY.

MAZALL-251500-
EASTERN MASSACHUSETTS
  
CITY           SKY/WX    TMP DP  RH WIND       PRES   REMARKS
BOSTON         CLOUDY    46  32  58 N9        30.27R                  
BEVERLY        CLOUDY    46  33  60 N10       30.25R                  
LAWRENCE       CLOUDY    44  32  62 N9        30.29R                  
BEDFORD        PTSUNNY   45  32  60 N6        30.26R                  
BLUE HILL        N/A     43  32  65 N9        30.23R                  
NORWOOD        CLOUDY    48  32  53 N9        30.26R                  
MARSHFIELD     CLOUDY    52  37  58 NE8G15    30.24R                  
PLYMOUTH       PTSUNNY   50  38  63 N10       30.23R                  
TAUNTON        PTSUNNY   52  35  52 VRB5      30.24R                  
NEW BEDFORD    MOSUNNY   52  37  56 VRB7      30.23R                  
$$

MAZALL-251500-
CAPE COD AND THE ISLANDS
  
CITY           SKY/WX    TMP DP  RH WIND       PRES   REMARKS
FALMOUTH       NOT AVBL                                               
HYANNIS        CLOUDY    55  39  54 N12       30.21R                  
CHATHAM        PTSUNNY   53  37  54 N8        30.23R                  
PROVINCETOWN   CLOUDY    50  38  63 NE15      30.25R                  
NANTUCKET      CLOUDY    54  40  59 NE14      30.21R                  
MARTHAS VNYRD  MOSUNNY   54  41  61 NE9       30.22R                  
$$
 
MAZALL-251500-
CENTRAL AND WESTERN MASSACHUSETTS
  
CITY           SKY/WX    TMP DP  RH WIND       PRES   REMARKS
WORCESTER      PTSUNNY   42  29  59 NE7       30.24R                  
FITCHBURG      PTSUNNY   42  31  64 N3        30.27R                  
ORANGE         PTSUNNY   42  29  59 N9        30.27R                  
SPRINGFIELD    PTSUNNY   43  29  58 N9        30.27R                  
WESTFIELD      PTSUNNY   42  32  67 N7        30.28R                  
NORTH ADAMS    MOSUNNY   40  30  67 W7        30.27R                  
PITTSFIELD     PTSUNNY   40  29  64 N8        30.24R                  
$$
 
RIZALL-251500-
RHODE ISLAND
  
CITY           SKY/WX    TMP DP  RH WIND       PRES   REMARKS
PROVIDENCE     MOSUNNY   49  34  56 N14       30.25R                  
NEWPORT        PTSUNNY   46  34  62 N9        30.23R                  
BLOCK ISLAND   MOSUNNY   48  37  65 N13       30.23R                  
SMITHFIELD     PTSUNNY   45  33  63 N12       30.25R                  
WESTERLY       MOSUNNY   47  32  56 N10       30.24S                  
$$
 
CTZALL-251500-
CONNECTICUT
  
CITY           SKY/WX    TMP DP  RH WIND       PRES   REMARKS
BRADLEY INTL   PTSUNNY   47  32  56 N9        30.27R                  
HARTFORD       PTSUNNY   46  32  58 N13       30.28R                  
BRIDGEPORT     MOSUNNY   46  35  65 N7        30.27R                  
DANBURY        PTSUNNY   46  33  60 N10       30.26R                  
GROTON         MOSUNNY   49  34  56 N13       30.24R                  
NEW HAVEN      MOSUNNY   47  35  63 N14       30.25R                  
CHESTER        FAIR      46  32  57 N9        30.25R                  
MERIDEN        PTSUNNY   46  31  55 N10G22    30.27R                  
WILLIMANTIC    PTSUNNY   47  32  56 NE14      30.25R                  
OXFORD         PTSUNNY   43  33  68 N12G20    30.25R                  
$$

MEZ002-015-021-024-NHZ003-005-008-011-012-014-VTZ005-008-251500-
NORTHERN NEW ENGLAND
  
CITY           SKY/WX    TMP DP  RH WIND       PRES   REMARKS
PORTLAND ME    MOSUNNY   44  28  53 N16       30.27R                  
BANGOR ME      PTSUNNY   41  28  60 NW9       30.24R                  
CONCORD NH     SUNNY     44  28  53 NW13      30.27R                  
MANCHESTER NH  PTSUNNY   45  28  51 N12       30.25R                  
NASHUA NH      CLOUDY    43  31  62 N9        30.27R                  
PORTSMOUTH NH  PTSUNNY   43  27  53 N13       30.25                   
JAFFREY NH     MOSUNNY   41  29  62 VRB5      30.25R                  
KEENE NH       MOSUNNY   42  29  59 N13G18    30.28R                  
BURLINGTON VT  CLOUDY    41  25  53 N13       30.32R                  
MT. WASHINGTON NOT AVBL                                               
$$

NYZ052-076-251500-
EASTERN NEW YORK
  
CITY           SKY/WX    TMP DP  RH WIND       PRES   REMARKS
ALBANY         PTSUNNY   38  31  76 N9        30.31R WCI  31          
NEW YORK CITY  PTSUNNY   50  33  52 NE16      30.25S                  
$$
 
ANZALL-251500-
MARINE OBSERVATIONS
  
STATION/POSITION TIME  TEMP    WIND        PRES    VSBY  WAVE
                       AIR SEA DIR/SP/G                  HT/PER
                 (UTC) (F)     (DEG/KT/KT) (MB)    (MI)  (FT/S)
BOSTON BUOY      1350   49 57   30/ 16/ 17 1023.1R         6/11
BUZZARDS BAY     1300          360/ 15/ 16 1023.8R
NANTUCKET SOUND  1350      62   40/ 12/ 17   N/A           2/ 3
MASS BAY-STELLWA 1304   49 57   30/ 16/ 19 1022.9R  1 7/8  7/11
ISLE OF SHOALS   1300   44      30/ 15/ 17 1023.8R
S OF BLOCK IS    1326      62                N/A           5/12
$$

......................KEY.........................
  SKY/WX - SKY CONDITION/PRESENT WEATHER
  TMP    - TEMPERATURE IN FAHRENHEIT
  DWPT   - DEWPOINT IN FAHRENHEIT
  RH     - RELATIVE HUMIDITY IN PERCENT
  WIND   - DIRECTION AND SPEED IN MPH
  PRES   - MEAN SEA LEVEL PRESSURE IN INCHES OF HG
  WCI    - WIND CHILL INDEX
  VSB    - VISIBILITY IN MILES
  HX     - HEAT INDEX
  TC     - TEMPERATURE IN CELSIUS
  VRB    - VARIABLE WIND DIRECTION
  N/A    - NOT AVAILABLE
  
      

Other recent Regional Weather Roundups

Mon Oct 26, 5:04am

Mon Oct 26, 4:04am

Mon Oct 26, 3:04am

Mon Oct 26, 2:04am

Mon Oct 26, 1:04am

Mon Oct 26, 12:04am

Sun Oct 25, 11:05pm

Sun Oct 25, 10:04pm

Sun Oct 25, 9:04pm

Sun Oct 25, 8:04pm

Sun Oct 25, 7:04pm

Sun Oct 25, 6:04pm

Sun Oct 25, 5:04pm

Sun Oct 25, 4:05pm

Sun Oct 25, 3:04pm

Sun Oct 25, 2:04pm

Sun Oct 25, 1:04pm

Sun Oct 25, 12:04pm

Sun Oct 25, 11:04am

Sun Oct 25, 9:04am

Sun Oct 25, 8:04am

Sun Oct 25, 7:04am

Sun Oct 25, 6:04am

Sun Oct 25, 5:04am

Sun Oct 25, 4:04am

Sun Oct 25, 3:04am

Sun Oct 25, 2:04am

Sun Oct 25, 1:05am

Sun Oct 25, 12:04am

Sat Oct 24, 11:04pm

Sat Oct 24, 10:04pm

Sat Oct 24, 9:04pm

Sat Oct 24, 8:04pm

Sat Oct 24, 7:04pm

Sat Oct 24, 6:04pm

Sat Oct 24, 5:05pm

Sat Oct 24, 4:04pm

Sat Oct 24, 3:04pm

Sat Oct 24, 2:04pm

Sat Oct 24, 1:05pm

Sat Oct 24, 12:04pm

Sat Oct 24, 11:05am

Sat Oct 24, 10:05am

Sat Oct 24, 9:04am

Sat Oct 24, 8:04am

Sat Oct 24, 7:04am

Sat Oct 24, 6:04am

Sat Oct 24, 5:04am

Sat Oct 24, 4:04am

Sat Oct 24, 3:04am

Sat Oct 24, 2:04am

Sat Oct 24, 1:05am

Sat Oct 24, 12:04am

Fri Oct 23, 11:04pm

Fri Oct 23, 10:04pm

Fri Oct 23, 9:04pm

Fri Oct 23, 8:05pm

Fri Oct 23, 7:04pm

Fri Oct 23, 6:04pm

Fri Oct 23, 5:05pm

Fri Oct 23, 4:04pm

Fri Oct 23, 3:04pm

Fri Oct 23, 2:05pm

Fri Oct 23, 1:04pm

Fri Oct 23, 12:04pm

Fri Oct 23, 11:04am

Fri Oct 23, 10:04am

Fri Oct 23, 9:04am

Fri Oct 23, 8:04am

Fri Oct 23, 7:04am

Fri Oct 23, 6:04am

Fri Oct 23, 5:04am

Fri Oct 23, 4:04am

Fri Oct 23, 3:04am

Fri Oct 23, 2:04am

Fri Oct 23, 1:04am

Fri Oct 23, 12:04am

Thu Oct 22, 11:04pm

Thu Oct 22, 10:04pm

Thu Oct 22, 9:05pm

Thu Oct 22, 8:04pm

Thu Oct 22, 7:05pm

Thu Oct 22, 6:04pm

Thu Oct 22, 5:04pm

Thu Oct 22, 4:05pm

Thu Oct 22, 3:04pm

Thu Oct 22, 2:05pm

Thu Oct 22, 1:04pm

Thu Oct 22, 12:04pm

Thu Oct 22, 11:04am

Thu Oct 22, 10:05am

Thu Oct 22, 9:04am

Thu Oct 22, 8:05am

Thu Oct 22, 7:04am

Thu Oct 22, 6:04am

Thu Oct 22, 5:04am

Thu Oct 22, 4:04am

Thu Oct 22, 3:04am

Thu Oct 22, 2:04am

Thu Oct 22, 1:04am

Thu Oct 22, 12:04am

Wed Oct 21, 11:05pm

Wed Oct 21, 10:04pm

Wed Oct 21, 9:04pm

Wed Oct 21, 8:04pm

Wed Oct 21, 7:04pm

Wed Oct 21, 6:04pm

Wed Oct 21, 5:05pm

Wed Oct 21, 4:04pm

Wed Oct 21, 3:04pm

Wed Oct 21, 2:05pm

Wed Oct 21, 1:04pm

Wed Oct 21, 12:04pm

Wed Oct 21, 11:04am

Wed Oct 21, 10:04am

Wed Oct 21, 9:04am

Wed Oct 21, 8:04am

Wed Oct 21, 7:04am

Wed Oct 21, 6:04am

Wed Oct 21, 5:04am

Wed Oct 21, 4:04am

Wed Oct 21, 3:04am

Wed Oct 21, 2:04am

Wed Oct 21, 1:04am

Wed Oct 21, 12:04am

Tue Oct 20, 11:05pm

Tue Oct 20, 10:04pm

Tue Oct 20, 9:04pm

Tue Oct 20, 8:05pm

Tue Oct 20, 7:04pm

Tue Oct 20, 6:04pm

Tue Oct 20, 5:05pm

Tue Oct 20, 4:04pm

Tue Oct 20, 3:05pm

Tue Oct 20, 2:07pm

Tue Oct 20, 1:04pm

Tue Oct 20, 12:04pm

Tue Oct 20, 11:04am

Tue Oct 20, 10:05am

Tue Oct 20, 9:04am

Tue Oct 20, 8:04am

Tue Oct 20, 7:04am

Tue Oct 20, 6:04am

Tue Oct 20, 5:04am

Tue Oct 20, 4:04am

Tue Oct 20, 3:04am

Tue Oct 20, 2:04am

Tue Oct 20, 1:04am

Tue Oct 20, 12:04am

Mon Oct 19, 11:04pm

Mon Oct 19, 10:04pm

Mon Oct 19, 9:04pm

Mon Oct 19, 8:04pm

Mon Oct 19, 7:04pm

Mon Oct 19, 6:04pm

Mon Oct 19, 5:04pm

Mon Oct 19, 4:04pm

Mon Oct 19, 3:04pm

Mon Oct 19, 2:04pm

Mon Oct 19, 1:05pm

Mon Oct 19, 12:04pm

Mon Oct 19, 11:04am

Mon Oct 19, 10:04am

Mon Oct 19, 9:04am

Mon Oct 19, 8:04am

Mon Oct 19, 7:04am

Mon Oct 19, 6:04am

Mon Oct 19, 5:04am

Meta data:

ID: c921ba11-e356-4683-a2c3-84b8e06aca23
Link: https://api.weather.gov/products/c921ba11-e356-4683-a2c3-84b8e06aca23